Time,TemperatureF,DewpointF,PressureIn,WindDirection,WindDirectionDegrees,WindSpeedMPH,WindSpeedGustMPH,Humidity,HourlyPrecipIn,Conditions,Clouds,dailyrainin,SoftwareType,DateUTC
2013-03-09 00:01:00,43.7,39.6,29.97,North,0,2.0,3.0,85,0.00,,,0.00,meteohub,2013-03-09 08:01:00,
2013-03-09 00:06:00,43.7,39.6,29.96,North,0,2.0,3.0,85,0.00,,,0.00,meteohub,2013-03-09 08:06:00,
2013-03-09 00:12:00,43.5,39.4,29.97,NE,45,0.0,2.0,85,0.00,,,0.00,meteohub,2013-03-09 08:12:00,
2013-03-09 00:17:00,43.3,39.2,29.98,North,0,1.0,2.0,85,0.00,,,0.00,meteohub,2013-03-09 08:17:00,
2013-03-09 00:22:00,43.2,39.0,29.98,North,0,0.0,2.0,85,0.00,,,0.00,meteohub,2013-03-09 08:22:00,
2013-03-09 00:27:00,43.2,39.0,29.97,North,0,2.0,2.0,85,0.00,,,0.00,meteohub,2013-03-09 08:27:00,
2013-03-09 00:32:00,43.0,39.0,29.98,North,0,2.0,2.0,86,0.00,,,0.00,meteohub,2013-03-09 08:32:00,
2013-03-09 00:37:00,43.0,39.0,29.98,North,0,2.0,2.0,86,0.00,,,0.00,meteohub,2013-03-09 08:37:00,
2013-03-09 00:42:00,43.0,39.0,29.98,NE,45,2.0,2.0,86,0.00,,,0.00,meteohub,2013-03-09 08:42:00,
2013-03-09 00:47:00,42.8,39.2,29.99,North,0,3.0,3.0,87,0.00,,,0.00,meteohub,2013-03-09 08:47:00,
2013-03-09 00:52:00,42.6,39.0,29.99,North,0,0.0,3.0,87,0.00,,,0.00,meteohub,2013-03-09 08:52:00,
2013-03-09 00:57:00,42.4,38.8,29.99,SW,225,0.0,3.0,87,0.00,,,0.00,meteohub,2013-03-09 08:57:00,
2013-03-09 01:02:00,42.4,38.8,29.99,SW,225,1.0,3.0,87,0.00,,,0.00,meteohub,2013-03-09 09:02:00,
2013-03-09 01:07:00,42.4,38.8,30.00,SW,225,1.0,2.0,87,0.00,,,0.00,meteohub,2013-03-09 09:07:00,
2013-03-09 01:12:00,42.1,38.5,30.00,North,0,2.0,2.0,87,0.00,,,0.00,meteohub,2013-03-09 09:12:00,
2013-03-09 01:17:00,41.9,38.3,30.01,North,0,0.0,2.0,87,0.00,,,0.00,meteohub,2013-03-09 09:17:00,
2013-03-09 01:22:00,41.7,38.1,30.01,North,0,1.0,2.0,87,0.00,,,0.00,meteohub,2013-03-09 09:22:00,
2013-03-09 01:27:00,41.5,37.9,30.01,SW,225,3.0,3.0,87,0.00,,,0.00,meteohub,2013-03-09 09:27:00,
2013-03-09 01:32:00,41.0,37.4,30.01,SW,225,0.0,3.0,87,0.00,,,0.00,meteohub,2013-03-09 09:32:00,
2013-03-09 01:37:00,40.8,37.2,30.01,North,0,2.0,3.0,87,0.00,,,0.00,meteohub,2013-03-09 09:37:00,
2013-03-09 01:42:00,40.8,37.2,30.01,North,0,2.0,3.0,87,0.00,,,0.00,meteohub,2013-03-09 09:42:00,
2013-03-09 01:47:00,41.0,37.8,30.01,NE,45,1.0,2.0,88,0.00,,,0.00,meteohub,2013-03-09 09:47:00,
2013-03-09 01:52:00,41.0,37.8,30.01,North,0,0.0,2.0,88,0.00,,,0.00,meteohub,2013-03-09 09:52:00,
2013-03-09 01:57:00,41.0,37.8,30.02,North,0,0.0,2.0,88,0.00,,,0.00,meteohub,2013-03-09 09:57:00,
2013-03-09 02:02:00,40.8,37.6,30.02,North,0,0.0,2.0,88,0.00,,,0.00,meteohub,2013-03-09 10:02:00,
2013-03-09 02:07:00,40.8,37.6,30.02,North,0,0.0,1.0,88,0.00,,,0.00,meteohub,2013-03-09 10:07:00,
2013-03-09 02:12:00,41.0,37.9,30.02,North,0,2.0,3.0,89,0.00,,,0.00,meteohub,2013-03-09 10:12:00,
2013-03-09 02:17:00,41.2,38.1,30.02,North,0,2.0,3.0,89,0.00,,,0.00,meteohub,2013-03-09 10:17:00,
2013-03-09 02:22:00,41.2,38.1,30.03,North,0,0.0,3.0,89,0.00,,,0.00,meteohub,2013-03-09 10:22:00,
2013-03-09 02:27:00,41.2,38.1,30.02,NE,45,0.0,3.0,89,0.00,,,0.00,meteohub,2013-03-09 10:27:00,
2013-03-09 02:32:00,41.2,38.1,30.03,NE,45,0.0,3.0,89,0.00,,,0.00,meteohub,2013-03-09 10:32:00,
2013-03-09 02:37:00,41.0,37.9,30.03,NE,45,0.0,1.0,89,0.00,,,0.00,meteohub,2013-03-09 10:37:00,
2013-03-09 02:42:00,41.2,38.1,30.03,NE,45,2.0,0.0,89,0.00,,,0.00,meteohub,2013-03-09 10:42:00,
2013-03-09 02:47:00,41.2,38.5,30.03,North,0,2.0,2.0,90,0.00,,,0.00,meteohub,2013-03-09 10:47:00,
2013-03-09 02:52:00,41.4,38.7,30.04,NE,45,0.0,4.0,90,0.00,,,0.00,meteohub,2013-03-09 10:52:00,
2013-03-09 02:57:00,41.5,38.8,30.04,North,0,0.0,4.0,90,0.00,,,0.00,meteohub,2013-03-09 10:57:00,
2013-03-09 03:02:00,41.7,39.0,30.04,NE,45,0.0,4.0,90,0.00,,,0.00,meteohub,2013-03-09 11:02:00,
2013-03-09 03:07:00,41.9,39.2,30.05,North,0,2.0,3.0,90,0.00,,,0.00,meteohub,2013-03-09 11:07:00,
2013-03-09 03:12:00,41.9,39.2,30.04,North,0,1.0,2.0,90,0.00,,,0.00,meteohub,2013-03-09 11:12:00,
2013-03-09 03:17:00,42.1,39.4,30.05,North,0,3.0,3.0,90,0.00,,,0.00,meteohub,2013-03-09 11:17:00,
2013-03-09 03:22:00,42.3,39.7,30.04,NE,45,3.0,3.0,91,0.00,,,0.00,meteohub,2013-03-09 11:22:00,
2013-03-09 03:27:00,42.3,39.7,30.04,NE,45,2.0,6.0,91,0.00,,,0.00,meteohub,2013-03-09 11:27:00,
2013-03-09 03:32:00,42.3,39.7,30.05,North,0,2.0,6.0,91,0.00,,,0.00,meteohub,2013-03-09 11:32:00,
2013-03-09 03:37:00,42.4,39.9,30.05,North,0,4.0,6.0,91,0.00,,,0.00,meteohub,2013-03-09 11:37:00,
2013-03-09 03:42:00,42.4,39.9,30.05,North,0,4.0,4.0,91,0.00,,,0.00,meteohub,2013-03-09 11:42:00,
2013-03-09 03:47:00,42.6,40.1,30.06,NE,45,3.0,5.0,91,0.00,,,0.00,meteohub,2013-03-09 11:47:00,
2013-03-09 03:52:00,42.8,40.3,30.06,NE,45,2.0,5.0,91,0.00,,,0.00,meteohub,2013-03-09 11:52:00,
2013-03-09 03:57:00,42.8,40.3,30.06,North,0,3.0,5.0,91,0.00,,,0.00,meteohub,2013-03-09 11:57:00,
2013-03-09 04:02:00,43.0,40.5,30.06,NE,45,5.0,5.0,91,0.00,,,0.00,meteohub,2013-03-09 12:02:00,
2013-03-09 04:07:00,43.2,40.6,30.06,NE,45,2.0,5.0,91,0.00,,,0.00,meteohub,2013-03-09 12:07:00,
2013-03-09 04:12:00,43.2,40.6,30.07,NE,45,2.0,5.0,91,0.00,,,0.00,meteohub,2013-03-09 12:12:00,
2013-03-09 04:17:00,43.3,40.8,30.07,NE,45,4.0,5.0,91,0.00,,,0.00,meteohub,2013-03-09 12:17:00,
2013-03-09 04:22:00,43.3,40.8,30.07,NE,45,2.0,4.0,91,0.00,,,0.00,meteohub,2013-03-09 12:22:00,
2013-03-09 04:27:00,43.3,40.8,30.08,NE,45,2.0,5.0,91,0.00,,,0.00,meteohub,2013-03-09 12:27:00,
2013-03-09 04:32:00,43.2,40.5,30.09,North,0,4.0,5.0,90,0.00,,,0.00,meteohub,2013-03-09 12:32:00,
2013-03-09 04:37:00,43.2,40.5,30.09,NE,45,2.0,4.0,90,0.00,,,0.00,meteohub,2013-03-09 12:37:00,
2013-03-09 04:42:00,43.0,40.3,30.09,NE,45,3.0,4.0,90,0.00,,,0.00,meteohub,2013-03-09 12:42:00,
2013-03-09 04:47:00,42.8,40.1,30.09,North,0,4.0,4.0,90,0.00,,,0.00,meteohub,2013-03-09 12:47:00,
2013-03-09 04:52:00,42.8,40.1,30.09,North,0,4.0,4.0,90,0.00,,,0.00,meteohub,2013-03-09 12:52:00,
2013-03-09 04:57:00,42.4,39.7,30.09,NW,315,2.0,4.0,90,0.00,,,0.00,meteohub,2013-03-09 12:57:00,
2013-03-09 05:02:00,42.3,39.6,30.10,NE,45,2.0,4.0,90,0.00,,,0.00,meteohub,2013-03-09 13:02:00,
2013-03-09 05:07:00,42.3,39.6,30.11,NE,45,2.0,4.0,90,0.00,,,0.00,meteohub,2013-03-09 13:07:00,
2013-03-09 05:12:00,41.7,39.0,30.11,NE,45,2.0,3.0,90,0.00,,,0.00,meteohub,2013-03-09 13:12:00,
2013-03-09 05:17:00,41.5,38.8,30.11,North,0,2.0,2.0,90,0.00,,,0.00,meteohub,2013-03-09 13:17:00,
2013-03-09 05:22:00,41.4,38.7,30.11,NE,45,2.0,3.0,90,0.00,,,0.00,meteohub,2013-03-09 13:22:00,
2013-03-09 05:27:00,41.2,38.5,30.11,North,0,3.0,3.0,90,0.00,,,0.00,meteohub,2013-03-09 13:27:00,
2013-03-09 05:32:00,41.2,38.5,30.12,North,0,1.0,3.0,90,0.00,,,0.00,meteohub,2013-03-09 13:32:00,
2013-03-09 05:37:00,41.0,38.7,30.12,North,0,0.0,3.0,91,0.00,,,0.00,meteohub,2013-03-09 13:37:00,
2013-03-09 05:42:00,41.0,38.7,30.12,NW,315,0.0,3.0,91,0.00,,,0.00,meteohub,2013-03-09 13:42:00,
2013-03-09 05:47:00,40.8,38.5,30.12,North,0,0.0,3.0,91,0.00,,,0.00,meteohub,2013-03-09 13:47:00,
2013-03-09 05:52:00,40.8,38.5,30.13,SW,225,0.0,2.0,91,0.00,,,0.00,meteohub,2013-03-09 13:52:00,
2013-03-09 05:57:00,40.8,38.5,30.13,South,180,0.0,1.0,91,0.00,,,0.00,meteohub,2013-03-09 13:57:00,
2013-03-09 06:02:00,40.8,38.5,30.14,SW,225,0.0,1.0,91,0.00,,,0.00,meteohub,2013-03-09 14:02:00,
2013-03-09 06:07:00,40.8,38.5,30.14,NE,45,0.0,1.0,91,0.00,,,0.00,meteohub,2013-03-09 14:07:00,
2013-03-09 06:12:00,40.8,38.5,30.14,North,0,1.0,0.0,91,0.00,,,0.00,meteohub,2013-03-09 14:12:00,
2013-03-09 06:17:00,40.8,38.5,30.14,NE,45,1.0,2.0,91,0.00,,,0.00,meteohub,2013-03-09 14:17:00,
2013-03-09 06:22:00,41.0,38.8,30.14,NE,45,0.0,2.0,92,0.00,,,0.00,meteohub,2013-03-09 14:22:00,
2013-03-09 06:27:00,41.0,38.8,30.14,NE,45,0.0,2.0,92,0.00,,,0.00,meteohub,2013-03-09 14:27:00,
2013-03-09 06:32:00,41.0,38.8,30.15,NE,45,0.0,1.0,92,0.00,,,0.00,meteohub,2013-03-09 14:32:00,
2013-03-09 06:37:00,41.0,38.8,30.15,NE,45,0.0,0.0,92,0.00,,,0.00,meteohub,2013-03-09 14:37:00,
2013-03-09 06:42:00,41.0,38.8,30.15,NE,45,0.0,0.0,92,0.00,,,0.00,meteohub,2013-03-09 14:42:00,
2013-03-09 06:47:00,40.8,38.7,30.15,NE,45,0.0,0.0,92,0.00,,,0.00,meteohub,2013-03-09 14:47:00,
2013-03-09 06:52:00,40.8,38.7,30.15,NE,45,0.0,0.0,92,0.00,,,0.00,meteohub,2013-03-09 14:52:00,
2013-03-09 06:57:00,40.8,38.7,30.15,NE,45,0.0,0.0,92,0.00,,,0.00,meteohub,2013-03-09 14:57:00,
2013-03-09 07:02:00,40.8,38.7,30.16,NE,45,0.0,0.0,92,0.00,,,0.00,meteohub,2013-03-09 15:02:00,
2013-03-09 07:07:00,41.0,38.8,30.16,NE,45,0.0,0.0,92,0.00,,,0.00,meteohub,2013-03-09 15:07:00,
2013-03-09 07:12:00,41.2,39.0,30.16,NE,45,0.0,0.0,92,0.00,,,0.00,meteohub,2013-03-09 15:12:00,
2013-03-09 07:17:00,41.4,39.6,30.16,NE,45,0.0,0.0,93,0.00,,,0.00,meteohub,2013-03-09 15:17:00,
2013-03-09 07:22:00,41.5,39.7,30.16,SW,225,0.0,0.0,93,0.00,,,0.00,meteohub,2013-03-09 15:22:00,
2013-03-09 07:27:00,41.9,40.1,30.17,West,270,0.0,1.0,93,0.00,,,0.00,meteohub,2013-03-09 15:27:00,
2013-03-09 07:32:00,42.4,40.6,30.17,SW,225,0.0,2.0,93,0.00,,,0.00,meteohub,2013-03-09 15:32:00,
2013-03-09 07:37:00,43.2,41.4,30.17,West,270,0.0,2.0,93,0.00,,,0.00,meteohub,2013-03-09 15:37:00,
2013-03-09 07:42:00,43.7,41.7,30.17,West,270,0.0,2.0,93,0.00,,,0.00,meteohub,2013-03-09 15:42:00,
2013-03-09 07:47:00,44.4,42.4,30.17,South,180,3.0,3.0,93,0.00,,,0.00,meteohub,2013-03-09 15:47:00,
2013-03-09 07:52:00,45.3,43.3,30.17,West,270,2.0,3.0,93,0.00,,,0.00,meteohub,2013-03-09 15:52:00,
2013-03-09 07:57:00,46.2,44.1,30.18,SW,225,1.0,3.0,92,0.00,,,0.00,meteohub,2013-03-09 15:57:00,
2013-03-09 08:02:00,46.9,44.4,30.18,SE,135,3.0,3.0,91,0.00,,,0.00,meteohub,2013-03-09 16:02:00,
2013-03-09 08:07:00,47.7,45.0,30.19,SW,225,3.0,9.0,90,0.00,,,0.00,meteohub,2013-03-09 16:07:00,
2013-03-09 08:12:00,48.2,45.1,30.19,North,0,1.0,9.0,89,0.00,,,0.00,meteohub,2013-03-09 16:12:00,
2013-03-09 08:17:00,49.1,45.7,30.19,North,0,2.0,9.0,88,0.00,,,0.00,meteohub,2013-03-09 16:17:00,
2013-03-09 08:22:00,49.6,45.9,30.19,North,0,4.0,4.0,87,0.00,,,0.00,meteohub,2013-03-09 16:22:00,
2013-03-09 08:27:00,50.2,46.2,30.19,West,270,2.0,4.0,86,0.00,,,0.00,meteohub,2013-03-09 16:27:00,
2013-03-09 08:32:00,50.5,46.2,30.19,NE,45,2.0,4.0,85,0.00,,,0.00,meteohub,2013-03-09 16:32:00,
2013-03-09 08:37:00,51.1,46.4,30.19,North,0,4.0,4.0,84,0.00,,,0.00,meteohub,2013-03-09 16:37:00,
2013-03-09 08:42:00,51.6,46.6,30.19,North,0,4.0,4.0,83,0.00,,,0.00,meteohub,2013-03-09 16:42:00,
2013-03-09 08:47:00,52.0,46.0,30.19,North,0,7.0,7.0,80,0.00,,,0.00,meteohub,2013-03-09 16:47:00,
2013-03-09 08:52:00,52.7,45.7,30.19,NE,45,4.0,7.0,77,0.00,,,0.00,meteohub,2013-03-09 16:52:00,
2013-03-09 08:57:00,53.4,45.3,30.19,North,0,4.0,8.0,74,0.00,,,0.00,meteohub,2013-03-09 16:57:00,
2013-03-09 09:02:00,54.1,43.9,30.20,North,0,10.0,10.0,68,0.00,,,0.00,meteohub,2013-03-09 17:02:00,
2013-03-09 09:07:00,54.5,44.6,30.21,North,0,6.0,10.0,69,0.00,,,0.00,meteohub,2013-03-09 17:07:00,
2013-03-09 09:12:00,54.9,43.3,30.20,NE,45,8.0,10.0,65,0.00,,,0.00,meteohub,2013-03-09 17:12:00,
2013-03-09 09:17:00,55.0,42.6,30.20,NE,45,8.0,13.0,63,0.00,,,0.00,meteohub,2013-03-09 17:17:00,
2013-03-09 09:22:00,55.6,42.8,30.20,NE,45,10.0,13.0,62,0.00,,,0.00,meteohub,2013-03-09 17:22:00,
2013-03-09 09:27:00,56.3,43.0,30.20,North,0,6.0,13.0,61,0.00,,,0.00,meteohub,2013-03-09 17:27:00,
2013-03-09 09:32:00,57.0,42.4,30.20,North,0,4.0,15.0,58,0.00,,,0.00,meteohub,2013-03-09 17:32:00,
2013-03-09 09:37:00,57.4,41.4,30.20,NE,45,10.0,15.0,55,0.00,,,0.00,meteohub,2013-03-09 17:37:00,
2013-03-09 09:42:00,55.8,38.8,30.20,NE,45,10.0,15.0,53,0.00,,,0.00,meteohub,2013-03-09 17:42:00,
2013-03-09 09:47:00,58.1,40.6,30.20,NE,45,11.0,15.0,52,0.00,,,0.00,meteohub,2013-03-09 17:47:00,
2013-03-09 09:52:00,58.6,40.6,30.20,NE,45,11.0,15.0,51,0.00,,,0.00,meteohub,2013-03-09 17:52:00,
2013-03-09 09:57:00,59.2,40.1,30.20,NE,45,9.0,15.0,49,0.00,,,0.00,meteohub,2013-03-09 17:57:00,
2013-03-09 10:02:00,59.4,39.7,30.20,East,90,8.0,14.0,48,0.00,,,0.00,meteohub,2013-03-09 18:02:00,
2013-03-09 10:07:00,59.9,39.6,30.20,North,0,8.0,14.0,47,0.00,,,0.00,meteohub,2013-03-09 18:07:00,
2013-03-09 10:12:00,60.4,39.6,30.20,NE,45,6.0,14.0,46,0.00,,,0.00,meteohub,2013-03-09 18:12:00,
2013-03-09 10:17:00,60.8,39.4,30.20,NE,45,9.0,13.0,45,0.00,,,0.00,meteohub,2013-03-09 18:17:00,
2013-03-09 10:22:00,61.3,39.2,30.20,North,0,8.0,13.0,44,0.00,,,0.00,meteohub,2013-03-09 18:22:00,
2013-03-09 10:27:00,61.9,37.2,30.21,North,0,8.0,11.0,40,0.00,,,0.00,meteohub,2013-03-09 18:27:00,
2013-03-09 10:32:00,62.2,37.0,30.20,North,0,10.0,12.0,39,0.00,,,0.00,meteohub,2013-03-09 18:32:00,
2013-03-09 10:37:00,62.4,37.2,30.20,North,0,5.0,12.0,39,0.00,,,0.00,meteohub,2013-03-09 18:37:00,
2013-03-09 10:42:00,63.0,37.0,30.21,NE,45,8.0,13.0,38,0.00,,,0.00,meteohub,2013-03-09 18:42:00,
2013-03-09 10:47:00,63.1,37.0,30.21,North,0,8.0,13.0,38,0.00,,,0.00,meteohub,2013-03-09 18:47:00,
2013-03-09 10:52:00,63.5,37.4,30.21,NE,45,5.0,13.0,38,0.00,,,0.00,meteohub,2013-03-09 18:52:00,
2013-03-09 10:57:00,63.7,35.6,30.21,NE,45,11.0,13.0,35,0.00,,,0.00,meteohub,2013-03-09 18:57:00,
2013-03-09 11:02:00,63.9,37.0,30.21,NE,45,5.0,13.0,37,0.00,,,0.00,meteohub,2013-03-09 19:02:00,
2013-03-09 11:07:00,64.4,36.1,30.21,North,0,14.0,14.0,35,0.00,,,0.00,meteohub,2013-03-09 19:07:00,
2013-03-09 11:12:00,64.2,36.0,30.21,NE,45,9.0,15.0,35,0.00,,,0.00,meteohub,2013-03-09 19:12:00,
2013-03-09 11:17:00,64.4,36.1,30.20,North,0,8.0,15.0,35,0.00,,,0.00,meteohub,2013-03-09 19:17:00,
2013-03-09 11:22:00,64.2,36.0,30.20,NE,45,11.0,16.0,35,0.00,,,0.00,meteohub,2013-03-09 19:22:00,
2013-03-09 11:27:00,64.6,36.3,30.20,East,90,7.0,16.0,35,0.00,,,0.00,meteohub,2013-03-09 19:27:00,
2013-03-09 11:32:00,64.9,36.7,30.20,NE,45,13.0,16.0,35,0.00,,,0.00,meteohub,2013-03-09 19:32:00,
2013-03-09 11:37:00,65.5,35.6,30.20,NE,45,17.0,17.0,33,0.00,,,0.00,meteohub,2013-03-09 19:37:00,
2013-03-09 11:43:00,65.7,36.5,30.20,North,0,11.0,14.0,34,0.00,,,0.00,meteohub,2013-03-09 19:43:00,
2013-03-09 11:48:00,66.0,36.1,30.20,East,90,11.0,17.0,33,0.00,,,0.00,meteohub,2013-03-09 19:48:00,
2013-03-09 11:53:00,66.6,36.5,30.20,WSW,248,12.0,17.0,33,0.00,,,0.00,meteohub,2013-03-09 19:53:00,
2013-03-09 11:58:00,66.9,36.1,30.20,NE,45,9.0,13.0,32,0.00,,,0.00,meteohub,2013-03-09 19:58:00,
2013-03-09 12:03:00,67.3,36.5,30.20,NE,45,8.0,13.0,32,0.00,,,0.00,meteohub,2013-03-09 20:03:00,
2013-03-09 12:08:00,67.5,34.2,30.21,NE,45,8.0,14.0,29,0.00,,,0.00,meteohub,2013-03-09 20:08:00,
2013-03-09 12:13:00,67.5,34.2,30.20,NE,45,7.0,20.0,29,0.00,,,0.00,meteohub,2013-03-09 20:13:00,
2013-03-09 12:18:00,68.2,33.8,30.20,NE,45,8.0,20.0,28,0.00,,,0.00,meteohub,2013-03-09 20:18:00,
2013-03-09 12:24:00,68.2,32.9,30.19,NE,45,11.0,20.0,27,0.00,,,0.00,meteohub,2013-03-09 20:24:00,
2013-03-09 12:29:00,68.9,33.6,30.20,North,0,7.0,16.0,27,0.00,,,0.00,meteohub,2013-03-09 20:29:00,
2013-03-09 12:34:00,69.3,30.9,30.19,NE,45,14.0,15.0,24,0.00,,,0.00,meteohub,2013-03-09 20:34:00,
2013-03-09 12:39:00,69.3,29.8,30.19,North,0,15.0,15.0,23,0.00,,,0.00,meteohub,2013-03-09 20:39:00,
2013-03-09 12:44:00,69.8,31.5,30.19,North,0,10.0,15.0,24,0.00,,,0.00,meteohub,2013-03-09 20:44:00,
2013-03-09 12:49:00,70.0,32.5,30.19,NW,315,6.0,15.0,25,0.00,,,0.00,meteohub,2013-03-09 20:49:00,
2013-03-09 12:54:00,70.3,31.8,30.19,NE,45,6.0,15.0,24,0.00,,,0.00,meteohub,2013-03-09 20:54:00,
2013-03-09 12:59:00,70.5,27.5,30.19,North,0,11.0,14.0,20,0.00,,,0.00,meteohub,2013-03-09 20:59:00,
2013-03-09 13:04:00,70.5,27.5,30.19,North,0,9.0,14.0,20,0.00,,,0.00,meteohub,2013-03-09 21:04:00,
2013-03-09 13:10:00,70.7,23.7,30.19,NE,45,11.0,16.0,17,0.00,,,0.00,meteohub,2013-03-09 21:10:00,
2013-03-09 13:15:00,70.9,23.9,30.18,North,0,8.0,16.0,17,0.00,,,0.00,meteohub,2013-03-09 21:15:00,
2013-03-09 13:20:00,70.9,25.3,30.18,North,0,14.0,14.0,18,0.00,,,0.00,meteohub,2013-03-09 21:20:00,
2013-03-09 13:25:00,71.1,26.8,30.18,North,0,8.0,15.0,19,0.00,,,0.00,meteohub,2013-03-09 21:25:00,
2013-03-09 13:30:00,71.2,24.3,30.18,North,0,13.0,16.0,17,0.00,,,0.00,meteohub,2013-03-09 21:30:00,
2013-03-09 13:35:00,71.2,25.5,30.18,North,0,12.0,16.0,18,0.00,,,0.00,meteohub,2013-03-09 21:35:00,
2013-03-09 13:40:00,70.7,23.7,30.18,WNW,293,11.0,17.0,17,0.00,,,0.00,meteohub,2013-03-09 21:40:00,
2013-03-09 13:45:00,70.9,26.6,30.18,East,90,13.0,17.0,19,0.00,,,0.00,meteohub,2013-03-09 21:45:00,
2013-03-09 13:50:00,71.2,26.8,30.18,NE,45,9.0,17.0,19,0.00,,,0.00,meteohub,2013-03-09 21:50:00,
2013-03-09 13:56:00,71.6,25.9,30.18,NE,45,14.0,17.0,18,0.00,,,0.00,meteohub,2013-03-09 21:56:00,
2013-03-09 14:01:00,71.4,24.3,30.18,North,0,13.0,17.0,17,0.00,,,0.00,meteohub,2013-03-09 22:01:00,
2013-03-09 14:06:00,71.6,24.4,30.18,North,0,13.0,18.0,17,0.00,,,0.00,meteohub,2013-03-09 22:06:00,
2013-03-09 14:11:00,71.6,23.0,30.18,NE,45,12.0,18.0,16,0.00,,,0.00,meteohub,2013-03-09 22:11:00,
2013-03-09 14:16:00,71.6,24.4,30.18,North,0,9.0,18.0,17,0.00,,,0.00,meteohub,2013-03-09 22:16:00,
2013-03-09 14:21:00,72.0,23.4,30.18,NE,45,13.0,17.0,16,0.00,,,0.00,meteohub,2013-03-09 22:21:00,
2013-03-09 14:26:00,72.1,21.9,30.18,North,0,13.0,17.0,15,0.00,,,0.00,meteohub,2013-03-09 22:26:00,
2013-03-09 14:31:00,72.3,23.5,30.18,NE,45,10.0,15.0,16,0.00,,,0.00,meteohub,2013-03-09 22:31:00,
2013-03-09 14:36:00,72.5,26.6,30.18,North,0,6.0,15.0,18,0.00,,,0.00,meteohub,2013-03-09 22:36:00,
2013-03-09 14:41:00,72.5,22.3,30.18,WNW,293,12.0,13.0,15,0.00,,,0.00,meteohub,2013-03-09 22:41:00,
2013-03-09 14:46:00,72.7,23.9,30.18,NE,45,8.0,16.0,16,0.00,,,0.00,meteohub,2013-03-09 22:46:00,
2013-03-09 14:51:00,72.7,22.3,30.18,North,0,16.0,16.0,15,0.00,,,0.00,meteohub,2013-03-09 22:51:00,
2013-03-09 14:56:00,72.7,23.9,30.17,North,0,8.0,16.0,16,0.00,,,0.00,meteohub,2013-03-09 22:56:00,
2013-03-09 15:01:00,72.7,20.7,30.17,SE,135,10.0,16.0,14,0.00,,,0.00,meteohub,2013-03-09 23:01:00,
2013-03-09 15:07:00,72.5,20.7,30.17,North,0,14.0,16.0,14,0.00,,,0.00,meteohub,2013-03-09 23:07:00,
2013-03-09 15:12:00,72.3,18.7,30.17,North,0,14.0,14.0,13,0.00,,,0.00,meteohub,2013-03-09 23:12:00,
2013-03-09 15:17:00,72.5,18.9,30.17,NE,45,17.0,17.0,13,0.00,,,0.00,meteohub,2013-03-09 23:17:00,
2013-03-09 15:22:00,72.5,15.1,30.17,North,0,16.0,17.0,11,0.00,,,0.00,meteohub,2013-03-09 23:22:00,
2013-03-09 15:27:00,72.5,18.9,30.17,NE,45,8.0,17.0,13,0.00,,,0.00,meteohub,2013-03-09 23:27:00,
2013-03-09 15:32:00,72.5,17.1,30.17,North,0,10.0,17.0,12,0.00,,,0.00,meteohub,2013-03-09 23:32:00,
2013-03-09 15:37:00,72.7,19.0,30.18,NE,45,15.0,16.0,13,0.00,,,0.00,meteohub,2013-03-09 23:37:00,
2013-03-09 15:42:00,72.7,19.0,30.17,North,0,11.0,15.0,13,0.00,,,0.00,meteohub,2013-03-09 23:42:00,
2013-03-09 15:47:00,72.7,19.0,30.18,North,0,6.0,15.0,13,0.00,,,0.00,meteohub,2013-03-09 23:47:00,
2013-03-09 15:52:00,72.7,19.0,30.17,North,0,9.0,15.0,13,0.00,,,0.00,meteohub,2013-03-09 23:52:00,
2013-03-09 15:57:00,72.7,20.7,30.17,North,0,5.0,17.0,14,0.00,,,0.00,meteohub,2013-03-09 23:57:00,
2013-03-09 16:02:00,72.7,20.7,30.17,North,0,7.0,17.0,14,0.00,,,0.00,meteohub,2013-03-10 00:02:00,
2013-03-09 16:07:00,72.7,17.1,30.17,NE,45,9.0,11.0,12,0.00,,,0.00,meteohub,2013-03-10 00:07:00,
2013-03-09 16:12:00,72.5,20.7,30.17,NE,45,5.0,11.0,14,0.00,,,0.00,meteohub,2013-03-10 00:12:00,
2013-03-09 16:17:00,72.5,20.7,30.17,NE,45,8.0,11.0,14,0.00,,,0.00,meteohub,2013-03-10 00:17:00,
2013-03-09 16:22:00,72.3,20.5,30.17,North,0,6.0,11.0,14,0.00,,,0.00,meteohub,2013-03-10 00:22:00,
2013-03-09 16:27:00,72.5,22.3,30.17,East,90,5.0,11.0,15,0.00,,,0.00,meteohub,2013-03-10 00:27:00,
2013-03-09 16:32:00,72.3,22.1,30.17,North,0,8.0,12.0,15,0.00,,,0.00,meteohub,2013-03-10 00:32:00,
2013-03-09 16:37:00,72.1,20.3,30.17,NE,45,8.0,12.0,14,0.00,,,0.00,meteohub,2013-03-10 00:37:00,
2013-03-09 16:42:00,72.0,20.1,30.17,NE,45,7.0,10.0,14,0.00,,,0.00,meteohub,2013-03-10 00:42:00,
2013-03-09 16:47:00,72.0,21.7,30.17,NW,315,6.0,8.0,15,0.00,,,0.00,meteohub,2013-03-10 00:47:00,
2013-03-09 16:52:00,71.8,23.2,30.17,NE,45,4.0,8.0,16,0.00,,,0.00,meteohub,2013-03-10 00:52:00,
2013-03-09 16:57:00,71.4,24.3,30.17,NE,45,4.0,8.0,17,0.00,,,0.00,meteohub,2013-03-10 00:57:00,
2013-03-09 17:02:00,71.1,22.6,30.17,NE,45,5.0,8.0,16,0.00,,,0.00,meteohub,2013-03-10 01:02:00,
2013-03-09 17:07:00,70.7,22.3,30.18,NE,45,5.0,8.0,16,0.00,,,0.00,meteohub,2013-03-10 01:07:00,
2013-03-09 17:12:00,70.3,23.5,30.18,NE,45,5.0,10.0,17,0.00,,,0.00,meteohub,2013-03-10 01:12:00,
2013-03-09 17:17:00,70.0,23.2,30.18,North,0,5.0,10.0,17,0.00,,,0.00,meteohub,2013-03-10 01:17:00,
2013-03-09 17:22:00,70.0,23.2,30.18,North,0,5.0,10.0,17,0.00,,,0.00,meteohub,2013-03-10 01:22:00,
2013-03-09 17:27:00,69.6,24.3,30.18,NE,45,5.0,6.0,18,0.00,,,0.00,meteohub,2013-03-10 01:27:00,
2013-03-09 17:32:00,69.3,23.9,30.18,North,0,5.0,5.0,18,0.00,,,0.00,meteohub,2013-03-10 01:32:00,
2013-03-09 17:37:00,68.9,23.7,30.18,North,0,2.0,5.0,18,0.00,,,0.00,meteohub,2013-03-10 01:37:00,
2013-03-09 17:42:00,68.7,23.5,30.18,North,0,2.0,5.0,18,0.00,,,0.00,meteohub,2013-03-10 01:42:00,
2013-03-09 17:47:00,68.2,24.3,30.18,NE,45,3.0,5.0,19,0.00,,,0.00,meteohub,2013-03-10 01:47:00,
2013-03-09 17:52:00,67.8,24.1,30.18,NE,45,4.0,5.0,19,0.00,,,0.00,meteohub,2013-03-10 01:52:00,
2013-03-09 17:57:00,67.5,25.0,30.18,North,0,3.0,4.0,20,0.00,,,0.00,meteohub,2013-03-10 01:57:00,
2013-03-09 18:02:00,66.9,25.7,30.18,North,0,2.0,4.0,21,0.00,,,0.00,meteohub,2013-03-10 02:02:00,
2013-03-09 18:07:00,66.6,25.3,30.18,NW,315,3.0,4.0,21,0.00,,,0.00,meteohub,2013-03-10 02:07:00,
2013-03-09 18:12:00,66.0,26.1,30.18,North,0,2.0,4.0,22,0.00,,,0.00,meteohub,2013-03-10 02:12:00,
2013-03-09 18:18:00,65.5,25.7,30.19,North,0,2.0,4.0,22,0.00,,,0.00,meteohub,2013-03-10 02:18:00,
2013-03-09 18:23:00,64.9,26.2,30.18,NE,45,2.0,3.0,23,0.00,,,0.00,meteohub,2013-03-10 02:23:00,
2013-03-09 18:28:00,64.2,26.6,30.19,North,0,0.0,3.0,24,0.00,,,0.00,meteohub,2013-03-10 02:28:00,
2013-03-09 18:33:00,63.5,27.0,30.19,North,0,0.0,2.0,25,0.00,,,0.00,meteohub,2013-03-10 02:33:00,
2013-03-09 18:38:00,63.5,27.0,30.19,North,0,0.0,2.0,25,0.00,,,0.00,meteohub,2013-03-10 02:38:00,
2013-03-09 18:43:00,62.2,27.0,30.19,North,0,1.0,2.0,26,0.00,,,0.00,meteohub,2013-03-10 02:43:00,
2013-03-09 18:48:00,61.7,27.3,30.19,North,0,1.0,2.0,27,0.00,,,0.00,meteohub,2013-03-10 02:48:00,
2013-03-09 18:53:00,61.2,27.9,30.19,North,0,1.0,2.0,28,0.00,,,0.00,meteohub,2013-03-10 02:53:00,
2013-03-09 18:58:00,60.4,28.0,30.19,North,0,0.0,2.0,29,0.00,,,0.00,meteohub,2013-03-10 02:58:00,
2013-03-09 19:04:00,60.4,28.0,30.19,North,0,0.0,2.0,29,0.00,,,0.00,meteohub,2013-03-10 03:04:00,
2013-03-09 19:09:00,59.5,28.0,30.19,North,0,0.0,2.0,30,0.00,,,0.00,meteohub,2013-03-10 03:09:00,
2013-03-09 19:14:00,59.4,28.8,30.19,North,0,0.0,2.0,31,0.00,,,0.00,meteohub,2013-03-10 03:14:00,
2013-03-09 19:19:00,59.0,28.4,30.20,North,0,1.0,2.0,31,0.00,,,0.00,meteohub,2013-03-10 03:19:00,
2013-03-09 19:24:00,58.5,28.8,30.20,North,0,1.0,2.0,32,0.00,,,0.00,meteohub,2013-03-10 03:24:00,
2013-03-09 19:29:00,58.3,29.3,30.20,North,0,1.0,2.0,33,0.00,,,0.00,meteohub,2013-03-10 03:29:00,
2013-03-09 19:34:00,58.1,29.1,30.20,North,0,1.0,2.0,33,0.00,,,0.00,meteohub,2013-03-10 03:34:00,
2013-03-09 19:39:00,57.7,29.5,30.20,North,0,1.0,2.0,34,0.00,,,0.00,meteohub,2013-03-10 03:39:00,
2013-03-09 19:44:00,57.6,30.0,30.20,North,0,2.0,2.0,35,0.00,,,0.00,meteohub,2013-03-10 03:44:00,
2013-03-09 19:49:00,57.2,29.8,30.20,North,0,0.0,2.0,35,0.00,,,0.00,meteohub,2013-03-10 03:49:00,
2013-03-09 19:55:00,57.0,29.7,30.20,North,0,0.0,2.0,35,0.00,,,0.00,meteohub,2013-03-10 03:55:00,
2013-03-09 20:00:00,56.7,30.0,30.20,North,0,0.0,2.0,36,0.00,,,0.00,meteohub,2013-03-10 04:00:00,
2013-03-09 20:05:00,56.7,30.0,30.20,North,0,0.0,2.0,36,0.00,,,0.00,meteohub,2013-03-10 04:05:00,
2013-03-09 20:10:00,55.8,29.8,30.20,North,0,0.0,0.0,37,0.00,,,0.00,meteohub,2013-03-10 04:10:00,
2013-03-09 20:15:00,55.2,30.0,30.20,North,0,0.0,0.0,38,0.00,,,0.00,meteohub,2013-03-10 04:15:00,
2013-03-09 20:20:00,54.9,29.7,30.20,North,0,0.0,0.0,38,0.00,,,0.00,meteohub,2013-03-10 04:20:00,
2013-03-09 20:25:00,54.5,30.0,30.20,North,0,0.0,0.0,39,0.00,,,0.00,meteohub,2013-03-10 04:25:00,
2013-03-09 20:30:00,54.1,30.4,30.20,North,0,0.0,0.0,40,0.00,,,0.00,meteohub,2013-03-10 04:30:00,
2013-03-09 20:35:00,53.8,30.6,30.21,North,0,1.0,0.0,41,0.00,,,0.00,meteohub,2013-03-10 04:35:00,
2013-03-09 20:40:00,53.6,30.4,30.21,North,0,0.0,1.0,41,0.00,,,0.00,meteohub,2013-03-10 04:40:00,
2013-03-09 20:45:00,53.2,30.7,30.21,North,0,0.0,1.0,42,0.00,,,0.00,meteohub,2013-03-10 04:45:00,
2013-03-09 20:50:00,52.9,30.9,30.21,North,0,0.0,1.0,43,0.00,,,0.00,meteohub,2013-03-10 04:50:00,
2013-03-09 20:55:00,52.7,30.7,30.21,North,0,0.0,0.0,43,0.00,,,0.00,meteohub,2013-03-10 04:55:00,
2013-03-09 21:00:00,52.3,31.1,30.21,North,0,1.0,0.0,44,0.00,,,0.00,meteohub,2013-03-10 05:00:00,
2013-03-09 21:01:00,52.3,31.1,30.21,North,0,1.0,0.0,44,0.00,,,0.00,meteohub,2013-03-10 05:01:00,
2013-03-09 21:02:00,52.3,31.1,30.21,North,0,1.0,0.0,44,0.00,,,0.00,meteohub,2013-03-10 05:02:00,
2013-03-09 21:07:00,52.3,31.1,30.21,North,0,1.0,1.0,44,0.00,,,0.00,meteohub,2013-03-10 05:07:00,
2013-03-09 21:12:00,52.0,31.3,30.22,North,0,0.0,1.0,45,0.00,,,0.00,meteohub,2013-03-10 05:12:00,
2013-03-09 21:17:00,51.8,30.6,30.22,North,0,1.0,1.0,44,0.00,,,0.00,meteohub,2013-03-10 05:17:00,
2013-03-09 21:22:00,51.6,30.9,30.21,North,0,0.0,1.0,45,0.00,,,0.00,meteohub,2013-03-10 05:22:00,
2013-03-09 21:27:00,51.4,30.7,30.21,West,270,1.0,1.0,45,0.00,,,0.00,meteohub,2013-03-10 05:27:00,
2013-03-09 21:32:00,51.3,30.6,30.21,NW,315,0.0,1.0,45,0.00,,,0.00,meteohub,2013-03-10 05:32:00,
2013-03-09 21:37:00,50.9,30.9,30.22,NW,315,1.0,1.0,46,0.00,,,0.00,meteohub,2013-03-10 05:37:00,
2013-03-09 21:42:00,50.7,30.2,30.22,NW,315,1.0,1.0,45,0.00,,,0.00,meteohub,2013-03-10 05:42:00,
2013-03-09 21:47:00,50.7,30.2,30.22,North,0,2.0,2.0,45,0.00,,,0.00,meteohub,2013-03-10 05:47:00,
2013-03-09 21:52:00,50.9,30.4,30.22,North,0,2.0,2.0,45,0.00,,,0.00,meteohub,2013-03-10 05:52:00,
2013-03-09 21:57:00,51.1,29.8,30.22,North,0,1.0,2.0,44,0.00,,,0.00,meteohub,2013-03-10 05:57:00,
2013-03-09 22:03:00,51.1,29.3,30.22,North,0,2.0,2.0,43,0.00,,,0.00,meteohub,2013-03-10 06:03:00,
2013-03-09 22:08:00,51.3,28.9,30.22,North,0,0.0,2.0,42,0.00,,,0.00,meteohub,2013-03-10 06:08:00,
2013-03-09 22:13:00,51.1,28.8,30.22,North,0,0.0,2.0,42,0.00,,,0.00,meteohub,2013-03-10 06:13:00,
2013-03-09 22:18:00,50.9,28.6,30.22,North,0,0.0,2.0,42,0.00,,,0.00,meteohub,2013-03-10 06:18:00,
2013-03-09 22:23:00,50.5,28.9,30.22,North,0,0.0,0.0,43,0.00,,,0.00,meteohub,2013-03-10 06:23:00,
2013-03-09 22:28:00,50.2,28.6,30.23,North,0,0.0,0.0,43,0.00,,,0.00,meteohub,2013-03-10 06:28:00,
2013-03-09 22:33:00,50.2,28.6,30.23,North,0,0.0,0.0,43,0.00,,,0.00,meteohub,2013-03-10 06:33:00,
2013-03-09 22:39:00,49.6,29.1,30.23,North,0,0.0,0.0,45,0.00,,,0.00,meteohub,2013-03-10 06:39:00,
2013-03-09 22:44:00,49.5,28.9,30.23,North,0,0.0,0.0,45,0.00,,,0.00,meteohub,2013-03-10 06:44:00,
2013-03-09 22:49:00,49.3,28.8,30.23,North,0,0.0,0.0,45,0.00,,,0.00,meteohub,2013-03-10 06:49:00,
2013-03-09 22:54:00,49.1,28.8,30.23,North,0,0.0,0.0,45,0.00,,,0.00,meteohub,2013-03-10 06:54:00,
2013-03-09 22:59:00,49.1,28.8,30.22,North,0,0.0,0.0,45,0.00,,,0.00,meteohub,2013-03-10 06:59:00,
2013-03-09 23:04:00,49.1,28.8,30.23,North,0,0.0,0.0,45,0.00,,,0.00,meteohub,2013-03-10 07:04:00,
2013-03-09 23:09:00,49.1,28.8,30.22,North,0,0.0,0.0,45,0.00,,,0.00,meteohub,2013-03-10 07:09:00,
2013-03-09 23:14:00,49.3,28.8,30.22,North,0,0.0,0.0,45,0.00,,,0.00,meteohub,2013-03-10 07:14:00,
2013-03-09 23:19:00,49.3,28.8,30.23,North,0,0.0,1.0,45,0.00,,,0.00,meteohub,2013-03-10 07:19:00,
2013-03-09 23:24:00,49.3,28.8,30.22,North,0,0.0,1.0,45,0.00,,,0.00,meteohub,2013-03-10 07:24:00,
2013-03-09 23:29:00,49.3,28.8,30.22,North,0,1.0,1.0,45,0.00,,,0.00,meteohub,2013-03-10 07:29:00,
2013-03-09 23:34:00,49.3,28.8,30.22,North,0,2.0,2.0,45,0.00,,,0.00,meteohub,2013-03-10 07:34:00,
2013-03-09 23:39:00,49.5,28.9,30.22,North,0,2.0,2.0,45,0.00,,,0.00,meteohub,2013-03-10 07:39:00,
2013-03-09 23:45:00,49.8,29.3,30.22,North,0,2.0,2.0,45,0.00,,,0.00,meteohub,2013-03-10 07:45:00,
2013-03-09 23:50:00,50.0,28.9,30.23,North,0,2.0,2.0,44,0.00,,,0.00,meteohub,2013-03-10 07:50:00,
2013-03-09 23:55:00,50.0,28.9,30.23,North,0,1.0,2.0,44,0.00,,,0.00,meteohub,2013-03-10 07:55:00,